Retour au catalogue

TIROS 8 DEB

ActifVLEO
NORAD 19396·DEBRIS·🇺🇸 United States

Lancé Dec 21, 1963 depuis Vandenberg Space Force Base

Loading…

Prochains Passages (prochaines 24 heures)

TLE

FraisSource: Space-Track

Époque: Sep 14, 2026, 11:33 UTC

1 19396U 63054E   26257.48151381  .00004268  00000-0  23391-3 0  9990
2 19396  58.4643 278.4354 0015723 147.8271 212.3752 15.16025086 47996

Suivez TIROS 8 DEB en temps réel avec AllMySat

Download on the App Store